Winter Haven, FL

9:13 AM EDT on July 29, 2016 (GMT -0400)
Winter Haven's-Gilbert

Weather History for KGIF - July, 2013

Change the Weather History Date:

Monday, July 22, 2013

  Actual Average Record
Temperature  
Mean Temperature 82 °F -  
Max Temperature 91 °F 92 °F 97 °F (2005)
Min Temperature 73 °F 71 °F 62 °F (1976)
Cooling Degree Days 16    
Growing Degree Days 32 (Base 50)    
Moisture  
Dew Point 73 °F    
Average Humidity 81    
Maximum Humidity 94    
Minimum Humidity 52    
Precipitation  
Precipitation 0.86 in - - ()
Sea Level Pressure  
Sea Level Pressure 30.12 in    
Wind  
Wind Speed 7 mph (SSW)    
Max Wind Speed 30 mph    
Max Gust Speed 46 mph    
Visibility 9 miles    
Events Rain    
Averages and records for this station are not official NWS values.
T = Trace of Precipitation, MM = Missing Value Source: NWS Daily Summary

Daily Weather History Graph

Daily Weather History Graph

Search for Another Location

Airport or City:

Trip Planner

Search our weather history database for the weather conditions in past years. The results will help you decide how hot, cold, wet, or windy it might be!

Date:

Astronomy

Jul. 22, 2013 Rise Set
Actual Time 6:44 AM EDT 8:22 PM EDT
Civil Twilight 6:18 AM EDT 8:48 PM EDT
Nautical Twilight 5:47 AM EDT 9:19 PM EDT
Astronomical Twilight 5:14 AM EDT 9:51 PM EDT
Moon 8:15 PM EDT (7/22) 6:33 AM EDT (7/22)
Length of Visible Light 14h 30m
Length of Day
13h 38m
Full, 100% of the Moon is Illuminated
Jul 22
Full
Jul 22
Full
Jul 29
Last Quarter
Aug 6
New
Aug 14
First Quarter

Hourly Weather History & Observations

Time (EDT) Temp. Heat Index Dew Point Humidity Pressure Visibility Wind Dir Wind Speed Gust Speed Precip Events Conditions
12:53 AM 75.9 °F - 72.0 °F 87% 30.14 in 10.0 mi SSW 4.6 mph - N/A   Clear
1:53 AM 75.0 °F - 72.0 °F 90% 30.13 in 10.0 mi SSW 5.8 mph - N/A   Clear
2:53 AM 75.0 °F - 72.0 °F 90% 30.11 in 10.0 mi SSW 4.6 mph - N/A   Clear
3:53 AM 73.9 °F - 72.0 °F 93% 30.10 in 10.0 mi SSW 6.9 mph - N/A   Clear
4:53 AM 75.0 °F - 73.0 °F 94% 30.09 in 10.0 mi South 5.8 mph - N/A   Clear
5:53 AM 75.0 °F - 73.0 °F 94% 30.11 in 10.0 mi SSW 3.5 mph - N/A   Clear
6:53 AM 75.0 °F - 72.0 °F 90% 30.12 in 10.0 mi South 4.6 mph - N/A   Clear
7:53 AM 77.0 °F - 73.0 °F 88% 30.13 in 10.0 mi South 5.8 mph - N/A   Clear
8:53 AM 80.1 °F 84.5 °F 73.9 °F 81% 30.15 in 10.0 mi SSW 6.9 mph - N/A   Clear
9:53 AM 82.9 °F 90.2 °F 75.0 °F 77% 30.15 in 10.0 mi South 6.9 mph - N/A   Scattered Clouds
10:04 AM 82.9 °F 89.4 °F 73.9 °F 74% 30.16 in 10.0 mi South 8.1 mph - N/A   Mostly Cloudy
10:53 AM 84.9 °F 92.1 °F 73.9 °F 69% 30.15 in 10.0 mi WSW 9.2 mph - N/A   Mostly Cloudy
11:01 AM 86.0 °F 93.8 °F 73.9 °F 67% 30.16 in 10.0 mi SW 8.1 mph - N/A   Scattered Clouds
11:53 AM 87.1 °F 94.5 °F 73.0 °F 63% 30.15 in 10.0 mi SW 10.4 mph - N/A   Clear
12:53 PM 89.1 °F 97.0 °F 73.0 °F 59% 30.14 in 10.0 mi SW 6.9 mph - N/A   Clear
1:53 PM 90.0 °F 96.9 °F 72.0 °F 55% 30.12 in 10.0 mi SSW 8.1 mph - N/A   Partly Cloudy
2:53 PM 90.0 °F 95.4 °F 70.0 °F 52% 30.11 in 10.0 mi SW 10.4 mph - N/A   Clear
3:10 PM 81.0 °F 85.8 °F 73.0 °F 77% 30.11 in 2.0 mi West 15.0 mph - 0.04 in Rain Rain
3:20 PM 80.1 °F 83.8 °F 72.0 °F 76% 30.12 in 1.5 mi West 12.7 mph - 0.11 in Rain Rain
3:36 PM 75.0 °F - 69.1 °F 82% 30.12 in 0.2 mi SE 29.9 mph 46.0 mph 0.78 in Rain Heavy Rain
3:47 PM 77.0 °F - 71.6 °F 83% 30.12 in 2.5 mi NW 10.4 mph 20.7 mph 0.83 in Rain Rain
3:53 PM 75.9 °F - 71.1 °F 85% 30.11 in 7.0 mi North 8.1 mph - 0.84 in Rain Light Rain
4:01 PM 77.0 °F - 72.0 °F 84% 30.12 in 7.0 mi SSE 10.4 mph - 0.01 in Rain Light Rain
4:53 PM 77.0 °F - 73.0 °F 88% 30.10 in 10.0 mi South 8.1 mph - 0.01 in   Clear
5:53 PM 77.0 °F - 72.0 °F 84% 30.12 in 10.0 mi NNE 8.1 mph - 0.00 in   Partly Cloudy
6:53 PM 78.1 °F - 72.0 °F 81% 30.12 in 10.0 mi Calm Calm - N/A   Mostly Cloudy
7:53 PM 77.0 °F - 72.0 °F 84% 30.10 in 10.0 mi SSE 5.8 mph - 0.01 in   Partly Cloudy
8:53 PM 77.0 °F - 73.0 °F 88% 30.09 in 10.0 mi Calm Calm - N/A   Partly Cloudy
9:53 PM 75.9 °F - 73.0 °F 91% 30.11 in 10.0 mi SSW 3.5 mph - N/A   Clear
10:53 PM 75.9 °F - 73.0 °F 91% 30.13 in 10.0 mi Calm Calm - N/A   Mostly Cloudy
11:05 PM 75.9 °F - 73.0 °F 91% 30.13 in 10.0 mi Calm Calm - N/A   Scattered Clouds
11:53 PM 75.9 °F - 73.0 °F 91% 30.12 in 10.0 mi Calm Calm - N/A   Clear